TimeMDT,TemperatureF,Dew PointF,Humidity,Sea Level PressureIn,VisibilityMPH,Wind Direction,Wind SpeedMPH,Gust SpeedMPH,PrecipitationIn,Events,Conditions,WindDirDegrees,DateUTC
12:15 AM,57.2,33.8,41,30.33,10.0,Calm,Calm,-,N/A,,Clear,0,2013-07-23 06:15:00
12:55 AM,55.4,33.8,44,30.34,10.0,NNE,3.5,-,N/A,,Clear,30,2013-07-23 06:55:00
1:15 AM,55.4,32.0,41,30.34,10.0,NNE,4.6,-,N/A,,Clear,30,2013-07-23 07:15:00
1:35 AM,55.4,30.2,38,30.34,10.0,Calm,Calm,-,N/A,,Clear,0,2013-07-23 07:35:00
1:55 AM,51.8,37.4,58,30.34,10.0,East,4.6,-,N/A,,Clear,80,2013-07-23 07:55:00
2:15 AM,48.2,37.4,66,30.34,10.0,Calm,Calm,-,N/A,,Clear,0,2013-07-23 08:15:00
2:35 AM,51.8,33.8,50,30.34,10.0,South,3.5,-,N/A,,Clear,170,2013-07-23 08:35:00
2:55 AM,50.0,35.6,58,30.34,10.0,Calm,Calm,-,N/A,,Clear,0,2013-07-23 08:55:00
3:15 AM,48.2,32.0,54,30.35,10.0,Calm,Calm,-,N/A,,Clear,0,2013-07-23 09:15:00
3:35 AM,48.2,33.8,58,30.35,10.0,Calm,Calm,-,N/A,,Clear,0,2013-07-23 09:35:00
3:55 AM,48.2,33.8,58,30.36,10.0,Calm,Calm,-,N/A,,Clear,0,2013-07-23 09:55:00
4:15 AM,46.4,33.8,62,30.36,10.0,Calm,Calm,-,N/A,,Clear,0,2013-07-23 10:15:00
4:35 AM,46.4,35.6,66,30.36,10.0,Calm,Calm,-,N/A,,Clear,0,2013-07-23 10:35:00
4:55 AM,46.4,30.2,53,30.37,10.0,Calm,Calm,-,N/A,,Clear,0,2013-07-23 10:55:00
5:15 AM,46.4,28.4,50,30.38,10.0,Calm,Calm,-,N/A,,Clear,0,2013-07-23 11:15:00
5:35 AM,44.6,33.8,66,30.38,10.0,Calm,Calm,-,N/A,,Clear,0,2013-07-23 11:35:00
5:55 AM,44.6,33.8,66,30.39,10.0,Calm,Calm,-,N/A,,Clear,0,2013-07-23 11:55:00
6:15 AM,42.8,30.2,61,30.39,10.0,Calm,Calm,-,N/A,,Clear,0,2013-07-23 12:15:00
6:35 AM,42.8,32.0,66,30.40,10.0,Calm,Calm,-,N/A,,Clear,0,2013-07-23 12:35:00
6:55 AM,44.6,33.8,66,30.40,10.0,Calm,Calm,-,N/A,,Clear,0,2013-07-23 12:55:00
7:15 AM,46.4,33.8,62,30.40,10.0,Calm,Calm,-,N/A,,Clear,0,2013-07-23 13:15:00
7:35 AM,46.4,33.8,62,30.40,10.0,Calm,Calm,-,N/A,,Clear,0,2013-07-23 13:35:00
7:55 AM,48.2,33.8,58,30.41,10.0,Calm,Calm,-,N/A,,Clear,0,2013-07-23 13:55:00
8:15 AM,51.8,33.8,50,30.41,10.0,Calm,Calm,-,N/A,,Clear,0,2013-07-23 14:15:00
8:35 AM,51.8,32.0,47,30.42,10.0,Calm,Calm,-,N/A,,Clear,0,2013-07-23 14:35:00
8:55 AM,53.6,33.8,47,30.42,10.0,Calm,Calm,-,N/A,,Clear,0,2013-07-23 14:55:00
9:15 AM,55.4,32.0,41,30.42,10.0,Calm,Calm,-,N/A,,Clear,0,2013-07-23 15:15:00
9:35 AM,57.2,33.8,41,30.42,10.0,Calm,Calm,-,N/A,,Clear,0,2013-07-23 15:35:00
9:55 AM,60.8,33.8,36,30.41,10.0,Calm,Calm,-,N/A,,Clear,0,2013-07-23 15:55:00
10:15 AM,62.6,35.6,37,30.41,10.0,Calm,Calm,-,N/A,,Clear,0,2013-07-23 16:15:00
10:35 AM,64.4,35.6,34,30.40,10.0,Calm,Calm,-,N/A,,Clear,0,2013-07-23 16:35:00
10:55 AM,68.0,35.6,30,30.39,10.0,SSW,3.5,-,N/A,,Clear,210,2013-07-23 16:55:00
11:15 AM,69.8,35.6,28,30.39,10.0,NW,3.5,-,N/A,,Clear,320,2013-07-23 17:15:00
11:35 AM,73.4,37.4,27,30.38,10.0,WSW,3.5,-,N/A,,Clear,240,2013-07-23 17:35:00
11:55 AM,73.4,33.8,23,30.37,10.0,WSW,3.5,-,N/A,,Clear,250,2013-07-23 17:55:00
12:15 PM,75.2,33.8,22,30.36,10.0,Calm,Calm,-,N/A,,Clear,0,2013-07-23 18:15:00
12:35 PM,78.8,33.8,20,30.35,10.0,WSW,3.5,-,N/A,,Clear,240,2013-07-23 18:35:00
12:55 PM,80.6,33.8,18,30.34,10.0,SW,3.5,-,N/A,,Clear,220,2013-07-23 18:55:00
1:15 PM,80.6,30.2,16,30.33,10.0,SW,3.5,-,N/A,,Clear,220,2013-07-23 19:15:00
2:15 PM,84.2,28.4,13,30.31,10.0,SSW,8.1,-,N/A,,Clear,210,2013-07-23 20:15:00
2:35 PM,86.0,28.4,12,30.30,10.0,SSW,8.1,-,N/A,,Clear,210,2013-07-23 20:35:00
2:55 PM,84.2,26.6,12,30.29,10.0,South,5.8,-,N/A,,Clear,180,2013-07-23 20:55:00
3:15 PM,84.2,26.6,12,30.29,10.0,South,5.8,-,N/A,,Clear,180,2013-07-23 21:15:00
3:35 PM,86.0,26.6,12,30.28,10.0,SSE,5.8,-,N/A,,Clear,150,2013-07-23 21:35:00
3:55 PM,84.2,26.6,12,30.27,10.0,SSW,6.9,-,N/A,,Clear,210,2013-07-23 21:55:00
4:15 PM,86.0,26.6,12,30.27,10.0,WSW,4.6,-,N/A,,Clear,250,2013-07-23 22:15:00
4:35 PM,86.0,28.4,12,30.26,10.0,West,4.6,-,N/A,,Clear,260,2013-07-23 22:35:00
4:55 PM,86.0,26.6,12,30.26,10.0,SW,5.8,-,N/A,,Clear,220,2013-07-23 22:55:00
5:15 PM,86.0,28.4,12,30.26,10.0,SSW,4.6,-,N/A,,Clear,210,2013-07-23 23:15:00
5:55 PM,84.2,26.6,12,30.25,10.0,ENE,12.7,-,N/A,,Clear,70,2013-07-23 23:55:00
6:15 PM,80.6,26.6,14,30.26,10.0,NNE,11.5,23.0,N/A,,Partly Cloudy,20,2013-07-24 00:15:00
6:55 PM,82.4,24.8,12,30.28,10.0,NNE,16.1,23.0,N/A,,Clear,20,2013-07-24 00:55:00
7:15 PM,78.8,26.6,15,30.30,10.0,North,15.0,24.2,N/A,,Clear,360,2013-07-24 01:15:00
7:35 PM,77.0,30.2,18,30.31,10.0,ENE,6.9,-,N/A,,Partly Cloudy,70,2013-07-24 01:35:00
7:55 PM,77.0,30.2,18,30.33,10.0,ESE,11.5,17.3,N/A,,Scattered Clouds,110,2013-07-24 01:55:00
8:15 PM,75.2,33.8,22,30.33,10.0,ESE,18.4,-,N/A,,Mostly Cloudy,120,2013-07-24 02:15:00
8:35 PM,73.4,33.8,23,30.34,10.0,SSE,15.0,19.6,N/A,,Partly Cloudy,160,2013-07-24 02:35:00
9:15 PM,73.4,35.6,25,30.37,10.0,Calm,Calm,-,N/A,,Clear,0,2013-07-24 03:15:00
9:35 PM,71.6,35.6,27,30.37,10.0,SW,5.8,-,N/A,,Clear,230,2013-07-24 03:35:00
9:55 PM,71.6,35.6,27,30.38,10.0,West,9.2,-,N/A,,Clear,260,2013-07-24 03:55:00
10:15 PM,69.8,37.4,31,30.39,10.0,WSW,8.1,-,N/A,,Clear,250,2013-07-24 04:15:00
10:35 PM,69.8,37.4,31,30.40,10.0,WSW,10.4,16.1,N/A,,Clear,250,2013-07-24 04:35:00
10:55 PM,68.0,37.4,33,30.40,10.0,WSW,12.7,-,N/A,,Clear,240,2013-07-24 04:55:00
11:35 PM,69.8,37.4,31,30.41,10.0,SSW,6.9,-,N/A,,Clear,200,2013-07-24 05:35:00
11:55 PM,66.2,37.4,35,30.40,10.0,West,5.8,-,N/A,,Clear,260,2013-07-24 05:55:00